Printer-friendly version
Follow the MPC on Twitter Follow the MPC on Facebook The MPC blog
Minor Planet Center

MPEC 2000-L06 : 2000 JQ66

The following Minor Planet Electronic Circular may be linked-to from your own Web pages, but must not otherwise be redistributed electronically.

A form allowing access to any MPEC is at the bottom of this page.


Read MPEC 2000-L05 Read MPEC 2000-L07


M.P.E.C. 2000-L06                                Issued 2000 June 2, 21:56 UT

     The Minor Planet Electronic Circulars contain information on unusual
         minor planets and routine data on comets.  They are published
   on behalf of Commission 20 of the International Astronomical Union by the
          Minor Planet Center, Smithsonian Astrophysical Observatory,
                          Cambridge, MA 02138, U.S.A.

             Prepared using the Tamkin Foundation Computer Network

             BMARSDEN@CFA.HARVARD.EDU or GWILLIAMS@CFA.HARVARD.EDU
          URL http://cfa-www.harvard.edu/iau/mpc.html  ISSN 1523-6714

                                   2000 JQ66

                           Revision to MPEC 2000-K05

Observations:
     K00J66Q 2 1984 03 29.67898 14 18 47.12 -10 37 52.0                      260
     K00J66Q 2 1984 03 29.72065 14 18 46.35 -10 37 27.0                      260
     K00J66Q  C2000 06 01.63229 16 17 41.56 +01 31 51.6                      360
     K00J66Q  C2000 06 01.63507 16 17 41.50 +01 31 54.5                      360
     K00J66Q  C2000 06 01.63785 16 17 41.47 +01 31 57.5                      360

Observer details:
260 Siding Spring Observatory-DSS.  Measurers G. Forti, A. Boattini,
    G. D'Abramo.  1.2-m Schmidt.
360 Kuma Kogen.  Observer A. Nakamura.  0.60-m f/6.0 Ritchey-Chretien + CCD.

Orbital elements:
2000 JQ66
Epoch 2000 Sept. 13.0 TT = JDT 2451800.5                Williams
M  14.99553              (2000.0)            P               Q
n   0.30924226     Peri.  102.77410     +0.37961036     +0.92491979
a   2.1657259      Node   189.61160     -0.88926001     +0.35869060
e   0.4191548      Incl.    7.04492     -0.25517171     +0.12595410
P   3.19           H   17.6           G   0.15           U   3
Residuals in seconds of arc
840329 260  0.1-  0.9-    000512 704 (4.3+  0.2+)   000528 649  0.4-  0.1+
840329 260  0.1-  0.1+    000512 704 (1.4-  3.2+)   000528 739  1.0+  0.5-
000502 699  0.4+  0.7+    000512 704 (3.3-  3.3+)   000528 739  0.1-  0.3-
000502 699  0.1-  0.8+    000514 704  0.0   0.5-    000528 739  1.1-  0.2+
000502 699  0.3+  0.6+    000514 704  0.1-  0.4-    000528 704  0.3+  0.3+
000502 699  0.3-  1.1+    000514 704  0.1+  0.3-    000528 649  1.0+  0.2-
000505 704  0.1+  0.2+    000514 704  0.0   0.5-    000528 704  0.1+  1.0+
000505 704  0.3+  0.2-    000514 704  0.4+  0.3-    000528 649  0.5+  1.1-
000505 704  0.4+  0.7+    000522 587  0.5-  0.6+    000528 704 (0.7-  4.7+)
000505 704  0.7-  0.7+    000522 587  0.7+  0.1+    000528 704  0.7+  0.8+
000505 704  0.4-  0.2+    000523 108  0.2+  1.9-    000529 670  1.0-  0.0
000511 704  0.1+  0.1-    000523 108  0.1+  1.1-    000529 670  0.0   0.3+
000511 704  0.2-  0.2-    000523 108  0.6+  1.6-    000529 670  0.0   0.1+
000511 704  0.1-  0.4-    000527 670  0.1-  0.2+    000601 360  0.1-  0.7+
000511 704  0.4-  0.1+    000527 670  0.0   0.3+    000601 360  0.4-  0.7+
000511 704  0.6-  0.0     000528 739  0.5-  0.5-    000601 360  0.2-  0.8+

Ephemeris:
2000 JQ66                a,e,i = 2.17, 0.42, 7                   q = 1.2580
Date    TT    R. A. (2000) Decl.     Delta      r     Elong.  Phase     V
2000 05 26    16 18.62   -00 29.6    0.398    1.393   159.3    14.9    17.1
2000 06 05    16 17.31   +02 27.9    0.369    1.355   153.5    19.5    17.1
2000 06 15    16 17.41   +04 39.8    0.351    1.322   146.3    25.3    17.1
2000 06 25    16 20.70   +05 49.3    0.343    1.296   139.4    30.7    17.2
2000 07 05    16 28.48   +05 49.6    0.341    1.276   133.6    35.2    17.2
2000 07 15    16 41.52   +04 44.1    0.344    1.263   129.3    38.5    17.3
2000 07 25    16 59.79   +02 44.1    0.354    1.258   126.3    40.6    17.4
2000 08 04    17 22.78   +00 04.6    0.369    1.261   124.4    41.6    17.6
2000 08 14    17 49.76   -02 54.8    0.393    1.271   123.2    41.8    17.7
2000 08 24    18 19.52   -05 53.0    0.426    1.289   122.2    41.6    17.9
2000 09 03    18 50.88   -08 31.9    0.469    1.314   121.1    41.1    18.2
2000 09 13    19 22.76   -10 37.7    0.524    1.345   119.6    40.6    18.4
2000 09 23    19 54.14   -12 04.3    0.592    1.381   117.6    40.1    18.7
2000 10 03    20 24.45   -12 51.3    0.671    1.421   115.1    39.6    19.1
2000 10 13    20 53.34   -13 02.2    0.763    1.466   112.1    39.1    19.4
2000 10 23    21 20.67   -12 42.3    0.866    1.513   108.7    38.5    19.7
2000 11 02    21 46.51   -11 57.5    0.979    1.563   104.9    37.8    20.0
2000 11 12    22 11.00   -10 52.8    1.102    1.615   100.9    37.0    20.4
2000 11 22    22 34.28   -09 33.1    1.234    1.668    96.7    36.0    20.6
2000 12 02    22 56.54   -08 01.9    1.373    1.721    92.2    34.9    20.9
2000 12 12    23 17.94   -06 22.6    1.519    1.775    87.6    33.7    21.2
2000 12 22    23 38.63   -04 37.7    1.669    1.829    82.8    32.3    21.4
2001 01 01    23 58.74   -02 49.4    1.823    1.883    78.0    30.7    21.6
2001 01 11    00 18.39   -00 59.6    1.979    1.936    73.0    29.1    21.8
2001 01 21    00 37.66   +00 50.2    2.135    1.989    68.0    27.3    22.0

Gareth V. Williams           (C) Copyright 2000 MPC           M.P.E.C. 2000-L06

Read MPEC 2000-L05 Read MPEC 2000-L07


MPEC number:

Enter an MPEC number in one of the following forms:

  • 1997-B01 (the full form)
  • J97B01 (the packed version of the full form)
  • B01 (the abbreviated form)

Valid HTML 4.01!